ACA842 EGPH-CYYZ

Flight info

Callsign ACA842
Flight time N/A
Altitude 36000
Route GOSAM DCT TRN DCT NIPIT DCT REVNU DCT PIKIL/M084F380 NATB IRLOK/N0487F380 N732B YBC/N0494F400 Q910 IMORI Q921 AGLUK Q941 TAMKO Q852 KANUR Q806 TUKIR IMEBA9
Aircraft B789/H-SDE1E2E3FGHIJ2J3J4J5M1RWXY/LB1D1

Departure

Time N/A
Airport Edinburgh Airport (EGPH)

Arrival

Time 2026-05-03 21:28
Airport Toronto Pearson International Airport (CYYZ)
Time Latitude Longitude Altitude Speed Heading
2026-05-03 20:15 47.86130 -70.00091 39775 ft 468 kts 221°
2026-05-03 20:15 47.81297 -70.06602 39792 ft 469 kts 221°
2026-05-03 20:16 47.76457 -70.13106 39769 ft 469 kts 221°
2026-05-03 20:16 47.71618 -70.19591 39773 ft 469 kts 221°
2026-05-03 20:17 47.66760 -70.26084 39776 ft 469 kts 221°
2026-05-03 20:17 47.61908 -70.32552 39781 ft 469 kts 221°
2026-05-03 20:18 47.57056 -70.39002 39770 ft 469 kts 221°
2026-05-03 20:18 47.52193 -70.45452 39769 ft 469 kts 221°
2026-05-03 20:19 47.47472 -70.52106 39764 ft 469 kts 224°
2026-05-03 20:19 47.42900 -70.58890 39765 ft 469 kts 224°
2026-05-03 20:20 47.38292 -70.65739 39769 ft 470 kts 224°
2026-05-03 20:20 47.33678 -70.72567 39771 ft 470 kts 224°
2026-05-03 20:21 47.29057 -70.79392 39776 ft 470 kts 224°
2026-05-03 20:21 47.24429 -70.86209 39777 ft 470 kts 224°
2026-05-03 20:22 47.19798 -70.93011 39774 ft 471 kts 224°
2026-05-03 20:22 47.15163 -70.99802 39784 ft 470 kts 224°
2026-05-03 20:23 47.10555 -71.06536 39787 ft 471 kts 224°
2026-05-03 20:23 47.05753 -71.13061 39785 ft 470 kts 222°
2026-05-03 20:24 47.00935 -71.19557 39791 ft 470 kts 222°
2026-05-03 20:24 46.96091 -71.26006 39799 ft 470 kts 222°
2026-05-03 20:25 46.91260 -71.32459 39800 ft 471 kts 222°
2026-05-03 20:25 46.86404 -71.38907 39799 ft 471 kts 222°
2026-05-03 20:26 46.81560 -71.45334 39803 ft 471 kts 222°
2026-05-03 20:26 46.76955 -71.52121 39791 ft 471 kts 228°
2026-05-03 20:27 46.72584 -71.59250 39803 ft 472 kts 229°
2026-05-03 20:27 46.69207 -71.67423 39812 ft 474 kts 247°
2026-05-03 20:28 46.66739 -71.76336 39822 ft 475 kts 247°
2026-05-03 20:28 46.64266 -71.85259 39820 ft 475 kts 246°
2026-05-03 20:29 46.61795 -71.94112 39824 ft 475 kts 246°
2026-05-03 20:29 46.59311 -72.03001 39835 ft 474 kts 246°
2026-05-03 20:30 46.56815 -72.11884 39829 ft 473 kts 246°
2026-05-03 20:30 46.54320 -72.20739 39831 ft 474 kts 246°
2026-05-03 20:31 46.51813 -72.29594 39829 ft 474 kts 246°
2026-05-03 20:31 46.49299 -72.38447 39824 ft 474 kts 246°
2026-05-03 20:32 46.46778 -72.47289 39816 ft 474 kts 246°
2026-05-03 20:32 46.44268 -72.56061 39815 ft 474 kts 246°
2026-05-03 20:33 46.41733 -72.64890 39816 ft 475 kts 246°
2026-05-03 20:33 46.39185 -72.73729 39813 ft 476 kts 246°
2026-05-03 20:34 46.36627 -72.82571 39812 ft 476 kts 246°
2026-05-03 20:34 46.34088 -72.91395 39816 ft 475 kts 247°
2026-05-03 20:35 46.31569 -73.00249 39821 ft 475 kts 246°
2026-05-03 20:35 46.29025 -73.09072 39826 ft 475 kts 246°
2026-05-03 20:36 46.26503 -73.17837 39835 ft 476 kts 246°
2026-05-03 20:36 46.23948 -73.26657 39833 ft 476 kts 246°
2026-05-03 20:37 46.21384 -73.35491 39829 ft 476 kts 246°
2026-05-03 20:37 46.19238 -73.42811 39832 ft 476 kts 246°
2026-05-03 20:38 46.16627 -73.51594 39831 ft 476 kts 246°
2026-05-03 20:38 46.14026 -73.60378 39835 ft 476 kts 246°
2026-05-03 20:39 46.11405 -73.69159 39833 ft 476 kts 246°
2026-05-03 20:39 46.08789 -73.77917 39829 ft 476 kts 246°
2026-05-03 20:40 46.06162 -73.86665 39833 ft 476 kts 246°
2026-05-03 20:40 46.02826 -73.94834 39845 ft 474 kts 232°
2026-05-03 20:41 45.98830 -74.02320 39830 ft 475 kts 232°
2026-05-03 20:41 45.94783 -74.09854 39834 ft 476 kts 232°
2026-05-03 20:42 45.90731 -74.17394 39832 ft 476 kts 232°
2026-05-03 20:42 45.86678 -74.24909 39830 ft 476 kts 232°
2026-05-03 20:43 45.82626 -74.32403 39823 ft 474 kts 232°
2026-05-03 20:43 45.78572 -74.39879 39825 ft 475 kts 232°
2026-05-03 20:44 45.74516 -74.47333 39830 ft 475 kts 232°
2026-05-03 20:44 45.70449 -74.54791 39831 ft 476 kts 232°
2026-05-03 20:45 45.66366 -74.62258 39833 ft 476 kts 232°
2026-05-03 20:45 45.62271 -74.69726 39838 ft 477 kts 232°
2026-05-03 20:46 45.58205 -74.77121 39833 ft 477 kts 232°
2026-05-03 20:46 45.54103 -74.84564 39833 ft 476 kts 232°
2026-05-03 20:47 45.49995 -74.91997 39836 ft 476 kts 232°
2026-05-03 20:47 45.45891 -74.99406 39836 ft 476 kts 233°
2026-05-03 20:47 45.44090 -75.03348 39862 ft 474 kts 244°
2026-05-03 20:48 45.42797 -75.07661 39854 ft 475 kts 253°
2026-05-03 20:48 45.41321 -75.16837 39834 ft 475 kts 258°
2026-05-03 20:49 45.39999 -75.25977 39830 ft 475 kts 258°
2026-05-03 20:49 45.38641 -75.35183 39827 ft 475 kts 258°
2026-05-03 20:50 45.37287 -75.44361 39819 ft 474 kts 258°
2026-05-03 20:50 45.35922 -75.53534 39816 ft 474 kts 258°
2026-05-03 20:51 45.34551 -75.62705 39814 ft 474 kts 258°
2026-05-03 20:51 45.33174 -75.71860 39814 ft 473 kts 258°
2026-05-03 20:52 45.31792 -75.80991 39814 ft 472 kts 258°
2026-05-03 20:52 45.30407 -75.90098 39817 ft 471 kts 258°
2026-05-03 20:53 45.29012 -75.99212 39823 ft 472 kts 258°
2026-05-03 20:53 45.27620 -76.08257 39830 ft 472 kts 258°
2026-05-03 20:54 45.26208 -76.17382 39835 ft 473 kts 258°
2026-05-03 20:54 45.24371 -76.26324 39843 ft 473 kts 244°
2026-05-03 20:54 45.22948 -76.30543 39836 ft 473 kts 245°
2026-05-03 20:55 45.20091 -76.38966 39845 ft 473 kts 245°
2026-05-03 20:55 45.17245 -76.47329 39841 ft 474 kts 245°
2026-05-03 20:56 45.14375 -76.55740 39850 ft 473 kts 245°
2026-05-03 20:56 45.11507 -76.64114 39847 ft 472 kts 245°
2026-05-03 20:57 45.08639 -76.72465 39850 ft 471 kts 245°
2026-05-03 20:57 45.05768 -76.80799 39844 ft 471 kts 245°
2026-05-03 20:58 45.02884 -76.89142 39853 ft 472 kts 245°
2026-05-03 20:58 45.00000 -76.97461 39852 ft 471 kts 245°
2026-05-03 20:59 44.97111 -77.05769 39857 ft 471 kts 245°
2026-05-03 20:59 44.94234 -77.14016 39852 ft 469 kts 245°
2026-05-03 21:00 44.92797 -77.18124 39304 ft 467 kts 245°
2026-05-03 21:00 44.91823 -77.20907 38866 ft 468 kts 245°
2026-05-03 21:00 44.89917 -77.26343 38278 ft 462 kts 245°
2026-05-03 21:00 44.88499 -77.30377 37799 ft 457 kts 245°
2026-05-03 21:01 44.87096 -77.34365 37362 ft 451 kts 245°
2026-05-03 21:01 44.85712 -77.38297 36922 ft 445 kts 245°
2026-05-03 21:01 44.84339 -77.42188 36492 ft 440 kts 245°
2026-05-03 21:01 44.82981 -77.46032 36073 ft 435 kts 245°
2026-05-03 21:02 44.81640 -77.49823 35646 ft 430 kts 245°
2026-05-03 21:02 44.80309 -77.53577 35246 ft 425 kts 245°
2026-05-03 21:02 44.78997 -77.57278 34833 ft 421 kts 245°
2026-05-03 21:02 44.77696 -77.60938 34434 ft 416 kts 245°
2026-05-03 21:03 44.76405 -77.64566 34031 ft 411 kts 245°
2026-05-03 21:03 44.75130 -77.68147 33594 ft 407 kts 246°
2026-05-03 21:03 44.73866 -77.71689 33069 ft 404 kts 246°
2026-05-03 21:03 44.72626 -77.75163 32551 ft 401 kts 246°
2026-05-03 21:04 44.71376 -77.78657 32045 ft 398 kts 246°
2026-05-03 21:04 44.70136 -77.82120 31547 ft 395 kts 246°
2026-05-03 21:04 44.68905 -77.85554 31052 ft 392 kts 247°
2026-05-03 21:04 44.67680 -77.88967 30572 ft 389 kts 247°
2026-05-03 21:05 44.66464 -77.92351 30094 ft 386 kts 247°
2026-05-03 21:05 44.65255 -77.95710 29578 ft 383 kts 248°
2026-05-03 21:05 44.64057 -77.99037 29065 ft 379 kts 248°
2026-05-03 21:05 44.62871 -78.02322 28570 ft 375 kts 248°
2026-05-03 21:06 44.61695 -78.05578 28066 ft 372 kts 248°
2026-05-03 21:06 44.60529 -78.08804 27592 ft 368 kts 248°
2026-05-03 21:06 44.59378 -78.11984 27112 ft 365 kts 248°
2026-05-03 21:06 44.58233 -78.15142 26624 ft 361 kts 248°
2026-05-03 21:07 44.57098 -78.18271 26151 ft 358 kts 248°
2026-05-03 21:07 44.55975 -78.21363 25669 ft 354 kts 248°
2026-05-03 21:07 44.54873 -78.24393 25215 ft 351 kts 248°
2026-05-03 21:07 44.53767 -78.27432 24761 ft 348 kts 248°
2026-05-03 21:08 44.52672 -78.30434 24317 ft 345 kts 248°
2026-05-03 21:08 44.51523 -78.33582 23832 ft 342 kts 248°
2026-05-03 21:08 44.50508 -78.36361 23408 ft 339 kts 248°
2026-05-03 21:08 44.49440 -78.39282 22893 ft 335 kts 248°
2026-05-03 21:09 44.48381 -78.42178 22355 ft 333 kts 248°
2026-05-03 21:09 44.47329 -78.45048 21836 ft 330 kts 248°
2026-05-03 21:09 44.46286 -78.47892 21317 ft 327 kts 248°
2026-05-03 21:09 44.45248 -78.50718 20799 ft 325 kts 248°
2026-05-03 21:10 44.44221 -78.53513 20295 ft 322 kts 248°
2026-05-03 21:10 44.43198 -78.56294 19794 ft 320 kts 248°
2026-05-03 21:10 44.42180 -78.59056 19288 ft 318 kts 248°
2026-05-03 21:10 44.41173 -78.61790 18796 ft 316 kts 248°
2026-05-03 21:11 44.40165 -78.64520 18288 ft 314 kts 248°
2026-05-03 21:11 44.39167 -78.67223 17777 ft 312 kts 248°
2026-05-03 21:11 44.38175 -78.69903 17298 ft 308 kts 248°
2026-05-03 21:11 44.37198 -78.72545 16776 ft 305 kts 248°
2026-05-03 21:12 44.36228 -78.75162 16284 ft 301 kts 248°
2026-05-03 21:12 44.35271 -78.77745 15807 ft 298 kts 247°
2026-05-03 21:12 44.34335 -78.80266 15326 ft 294 kts 247°
2026-05-03 21:12 44.33398 -78.82790 14855 ft 291 kts 247°
2026-05-03 21:13 44.32471 -78.85279 14472 ft 285 kts 247°
2026-05-03 21:13 44.31566 -78.87710 14116 ft 280 kts 247°
2026-05-03 21:13 44.30704 -78.90139 13738 ft 276 kts 253°
2026-05-03 21:13 44.30193 -78.92671 13376 ft 266 kts 258°
2026-05-03 21:14 44.29718 -78.95119 13081 ft 257 kts 256°
2026-05-03 21:14 44.29120 -78.97442 12610 ft 256 kts 247°
2026-05-03 21:14 44.28091 -78.99433 11898 ft 249 kts 231°
2026-05-03 21:14 44.26716 -79.00859 11269 ft 243 kts 216°
2026-05-03 21:15 44.25286 -79.01951 10903 ft 229 kts 217°
2026-05-03 21:15 44.23885 -79.03045 10658 ft 235 kts 217°
2026-05-03 21:15 44.22435 -79.04161 10443 ft 236 kts 217°
2026-05-03 21:15 44.21028 -79.05232 10206 ft 234 kts 217°
2026-05-03 21:16 44.19583 -79.06342 9972 ft 235 kts 217°
2026-05-03 21:16 44.18170 -79.07421 9753 ft 229 kts 217°
2026-05-03 21:16 44.16766 -79.08501 9509 ft 232 kts 217°
2026-05-03 21:16 44.15384 -79.09558 9349 ft 230 kts 217°
2026-05-03 21:17 44.13975 -79.10638 9104 ft 232 kts 217°
2026-05-03 21:17 44.13028 -79.11360 8942 ft 225 kts 217°
2026-05-03 21:17 44.11211 -79.12748 8651 ft 226 kts 217°
2026-05-03 21:17 44.09828 -79.13807 8433 ft 228 kts 217°
2026-05-03 21:18 44.08436 -79.14868 8220 ft 225 kts 217°
2026-05-03 21:18 44.07079 -79.15899 7994 ft 223 kts 217°
2026-05-03 21:18 44.05713 -79.16945 7784 ft 224 kts 217°
2026-05-03 21:18 44.04346 -79.17989 7584 ft 225 kts 217°
2026-05-03 21:19 44.02992 -79.19014 7362 ft 219 kts 217°
2026-05-03 21:19 44.01649 -79.20039 7168 ft 221 kts 217°
2026-05-03 21:19 44.00302 -79.21067 6963 ft 220 kts 217°
2026-05-03 21:19 43.98951 -79.22094 6769 ft 221 kts 217°
2026-05-03 21:20 43.97644 -79.23083 6573 ft 217 kts 217°
2026-05-03 21:20 43.96317 -79.24095 6379 ft 217 kts 216°
2026-05-03 21:20 43.94991 -79.25102 6185 ft 218 kts 216°
2026-05-03 21:20 43.93684 -79.26089 5978 ft 214 kts 217°
2026-05-03 21:21 43.92371 -79.27091 5803 ft 216 kts 217°
2026-05-03 21:21 43.91047 -79.28095 5599 ft 217 kts 216°
2026-05-03 21:21 43.89727 -79.29089 5414 ft 212 kts 216°
2026-05-03 21:21 43.88412 -79.30020 5218 ft 213 kts 217°
2026-05-03 21:22 43.87181 -79.31153 5043 ft 210 kts 226°
2026-05-03 21:22 43.86146 -79.32527 4860 ft 201 kts 232°
2026-05-03 21:22 43.85173 -79.33946 4710 ft 206 kts 233°
2026-05-03 21:22 43.84179 -79.35401 4513 ft 208 kts 232°
2026-05-03 21:23 43.83204 -79.36823 4349 ft 199 kts 232°
2026-05-03 21:23 43.82242 -79.38227 4175 ft 203 kts 232°
2026-05-03 21:23 43.81273 -79.39644 4007 ft 203 kts 232°
2026-05-03 21:23 43.80300 -79.41065 3865 ft 202 kts 232°
2026-05-03 21:24 43.79324 -79.42489 3755 ft 204 kts 232°
2026-05-03 21:24 43.78372 -79.43874 3613 ft 199 kts 232°
2026-05-03 21:24 43.77742 -79.44803 3438 ft 198 kts 232°
2026-05-03 21:24 43.76829 -79.46130 3199 ft 178 kts 232°
2026-05-03 21:25 43.76020 -79.47324 2966 ft 165 kts 234°
2026-05-03 21:25 43.75242 -79.48463 2821 ft 162 kts 233°
2026-05-03 21:25 43.74463 -79.49608 2601 ft 164 kts 232°
2026-05-03 21:25 43.73436 -79.51103 2321 ft 162 kts 232°
2026-05-03 21:26 43.72913 -79.51874 2172 ft 161 kts 231°
2026-05-03 21:26 43.72177 -79.52942 1951 ft 146 kts 231°
2026-05-03 21:26 43.71504 -79.53920 1770 ft 131 kts 232°
2026-05-03 21:26 43.70918 -79.54781 1580 ft 122 kts 232°
2026-05-03 21:27 43.70333 -79.55629 1405 ft 121 kts 232°
2026-05-03 21:27 43.69772 -79.56468 1229 ft 119 kts 233°
2026-05-03 21:27 43.69172 -79.57326 1075 ft 126 kts 230°
2026-05-03 21:27 43.68591 -79.58156 889 ft 118 kts 233°
2026-05-03 21:28 43.68016 -79.59007 735 ft 125 kts 235°
2026-05-03 21:28 43.67423 -79.59868 574 ft 117 kts 234°
2026-05-03 21:28 43.66990 -79.60516 565 ft 68 kts 227°
2026-05-03 21:28 43.66736 -79.60952 560 ft 48 kts 250°
2026-05-03 21:29 43.66685 -79.61233 552 ft 9 kts 284°
2026-05-03 21:29 43.66703 -79.61270 563 ft 13 kts 310°
2026-05-03 21:29 43.66774 -79.61368 557 ft 16 kts 316°
2026-05-03 21:29 43.66873 -79.61495 556 ft 22 kts 316°
2026-05-03 21:30 43.66962 -79.61612 561 ft 14 kts 316°
2026-05-03 21:30 43.67016 -79.61673 567 ft 6 kts 331°
2026-05-03 21:30 43.67044 -79.61679 565 ft 4 kts
2026-05-03 21:30 43.67081 -79.61651 568 ft 10 kts 40°
2026-05-03 21:31 43.67155 -79.61553 562 ft 18 kts 43°
2026-05-03 21:31 43.67241 -79.61443 563 ft 16 kts 42°
2026-05-03 21:31 43.67328 -79.61347 566 ft 16 kts 26°
2026-05-03 21:31 43.67422 -79.61294 566 ft 13 kts 21°
2026-05-03 21:32 43.67486 -79.61278 565 ft 6 kts
2026-05-03 21:32 43.67510 -79.61275 566 ft 3 kts
2026-05-03 21:32 43.67530 -79.61272 566 ft 3 kts
2026-05-03 21:32 43.67562 -79.61266 568 ft 6 kts
2026-05-03 21:33 43.67586 -79.61261 568 ft 0 kts